Yuma MCAS, AZ

3:38 AM MST on December 10, 2019 (GMT -0700)
Yuma Marine Corps Air Station

Weather History for KNYL - October, 2019

Change the Weather History Date:

Sunday, October 20, 2019

  Actual Average Record
Temperature  
Mean Temperature 76 °F 76 °F  
Max Temperature 91 °F 88 °F 105 °F (2003)
Min Temperature 60 °F 63 °F 44 °F (1949)
Degree Days  
Heating Degree Days 0 0  
Month to date heating degree days 0 0  
Since 1 July heating degree days 0 0  
Cooling Degree Days 11 11  
Month to date cooling degree days 267 291  
Year to date cooling degree days 4258 4465  
Growing Degree Days 26 (Base 50)    
Moisture  
Dew Point 28 °F    
Average Humidity 23    
Maximum Humidity 36    
Minimum Humidity 9    
Precipitation  
Precipitation 0.00 in 0.01 in 0.14 in (1886)
Month to date precipitation 0.00 0.15  
Year to date precipitation 1.49 2.77  
Sea Level Pressure  
Sea Level Pressure 29.84 in    
Wind  
Wind Speed 8 mph (North)    
Max Wind Speed 18 mph    
Max Gust Speed 25 mph    
Visibility 10 miles    
Events      
T = Trace of Precipitation, MM = Missing Value Source: NWS Daily Summary

Daily Weather History Graph

Daily Weather History Graph

Search for Another Location

Airport or City:

Astronomy

Oct. 20, 2019 Rise Set
Actual Time 6:46 AM MST 5:59 PM MST
Civil Twilight 6:21 AM MST 6:24 PM MST
Nautical Twilight 5:52 AM MST 6:53 PM MST
Astronomical Twilight 5:23 AM MST 7:22 PM MST
Moon 11:25 PM MST (10/20) 1:04 PM MST (10/20)
Length of Visible Light 12h 03m
Length of Day
11h 13m
Waning Gibbous, 58% of the Moon is Illuminated
Oct 20
Waning Gibbous
Oct 21
Last Quarter
Oct 27
New
Nov 4
First Quarter
Nov 12
Full

Hourly Weather History & Observations

Time (MST) Temp. Dew Point Humidity Pressure Visibility Wind Dir Wind Speed Gust Speed Precip Events Conditions
12:57 AM 66.0 °F 30.9 °F 27% 29.75 in 10.0 mi Calm Calm - N/A   Clear
1:57 AM 64.0 °F 30.9 °F 29% 29.75 in 10.0 mi NNE 5.8 mph - N/A   Clear
2:57 AM 63.0 °F 33.1 °F 33% 29.75 in 10.0 mi Calm Calm - N/A   Clear
3:57 AM 62.1 °F 34.0 °F 35% 29.75 in 10.0 mi North 5.8 mph - N/A   Clear
4:57 AM 62.1 °F 33.1 °F 34% 29.78 in 10.0 mi NNE 5.8 mph - N/A   Clear
5:57 AM 62.1 °F 35.1 °F 37% 29.77 in 10.0 mi NE 4.6 mph - N/A   Clear
6:57 AM 61.0 °F 34.0 °F 36% 29.81 in 10.0 mi North 5.8 mph - N/A   Clear
7:57 AM 66.0 °F 30.9 °F 27% 29.84 in 10.0 mi Calm Calm - N/A   Clear
8:57 AM 72.0 °F 30.9 °F 22% 29.87 in 10.0 mi NNE 4.6 mph - N/A   Clear
9:57 AM 78.1 °F 36.0 °F 22% 29.88 in 10.0 mi Variable 6.9 mph - N/A   Clear
10:57 AM 82.0 °F 33.1 °F 17% 29.88 in 10.0 mi North 12.7 mph - N/A   Clear
11:57 AM 84.0 °F 30.9 °F 15% 29.88 in 10.0 mi North 16.1 mph 23.0 mph N/A   Clear
12:57 PM 88.0 °F 26.1 °F 11% 29.86 in 10.0 mi North 16.1 mph 24.2 mph N/A   Clear
1:57 PM 88.0 °F 24.1 °F 10% 29.84 in 10.0 mi NNE 13.8 mph 23.0 mph N/A   Clear
2:57 PM 90.0 °F 25.0 °F 10% 29.83 in 10.0 mi North 18.4 mph 24.2 mph N/A   Clear
3:57 PM 89.1 °F 24.1 °F 9% 29.83 in 10.0 mi North 15.0 mph 23.0 mph N/A   Clear
4:57 PM 87.1 °F 21.0 °F 9% 29.83 in 10.0 mi North 11.5 mph - N/A   Clear
5:57 PM 82.9 °F 21.9 °F 11% 29.84 in 10.0 mi North 9.2 mph - N/A   Clear
6:57 PM 81.0 °F 23.0 °F 12% 29.86 in 10.0 mi NNW 8.1 mph - N/A   Clear
7:57 PM 77.0 °F 24.1 °F 14% 29.88 in 10.0 mi NE 5.8 mph - N/A   Clear
8:57 PM 73.9 °F 23.0 °F 15% 29.89 in 10.0 mi North 5.8 mph - N/A   Clear
9:57 PM 75.0 °F 21.0 °F 13% 29.91 in 10.0 mi North 9.2 mph - N/A   Clear
10:57 PM 75.9 °F 19.0 °F 12% 29.93 in 10.0 mi North 10.4 mph - N/A   Clear
11:57 PM 73.9 °F 19.0 °F 13% 29.93 in 10.0 mi North 10.4 mph - N/A   Clear